This demonstration page uses our WeatherBlox Daily Observations layout. Learn more.

Hourly Observations for October 1, 2016

Temp ( °F °C ) Dew Point ( °F °C ) Humidity (%) Winds ( mph kmh ) Pressure ( in mb ) Visibility ( mi km ) Precip ( " mm )
12:15 am 00:15 Clear 53 11.9 44 6.8 71 71 SSE 3 6 30.12 1020 10 16.09344 0 0
12:35 am 00:35 Clear 52 11.3 44 6.4 72 72 ESE 6 9 30.12 1020 10 16.09344 0 0
12:55 am 00:55 Clear 51 10.8 45 7 78 78 SE 5 7 30.12 1020 10 16.09344 0 0
1:15 am 01:15 Clear 51 10.8 45 7.1 78 78 SE 6 9 30.12 1020 10 16.09344 0 0
1:35 am 01:35 Clear 53 11.5 44 6.9 74 74 S 3 6 30.12 1020 10 16.09344 0 0
1:55 am 01:55 Clear 53 11.4 44 6.7 73 73 Calm 30.12 1020 10 16.09344 0 0
2:15 am 02:15 Clear 51 10.7 44 6.4 75 75 SE 3 6 30.12 1020 10 16.09344 0 0
2:35 am 02:35 Clear 51 10.6 44 6.6 77 77 SSE 5 7 30.12 1020 10 16.09344 0 0
2:55 am 02:55 Clear 52 11 44 6.6 75 75 S 3 6 30.12 1020 10 16.09344 0 0
3:15 am 03:15 Clear 51 10.7 44 6.6 76 76 SSE 5 7 30.12 1020 10 16.09344 0 0
3:35 am 03:35 Clear 50 10.2 43 6.1 76 76 S 3 6 30.15 1021 10 16.09344 0 0
3:55 am 03:55 Clear 50 10 43 6.1 77 77 Calm 30.15 1021 10 16.09344 0 0
4:15 am 04:15 Clear 48 8.8 43 6.2 84 84 Calm 30.15 1021 10 16.09344 0 0
4:35 am 04:35 Clear 49 9.5 43 6.3 81 81 Calm 30.15 1021 10 16.09344 0 0
4:55 am 04:55 Clear 48 8.7 43 6.1 84 84 Calm 30.15 1021 10 16.09344 0 0
5:15 am 05:15 Clear 50 9.8 44 6.5 80 80 Calm 30.15 1021 10 16.09344 0 0
5:35 am 05:35 Clear 50 9.9 44 6.5 80 80 Calm 30.15 1021 10 16.09344 0 0
5:55 am 05:55 Clear 49 9.5 44 6.4 81 81 Calm 30.15 1021 10 16.09344 0 0
6:15 am 06:15 Clear 49 9.3 43 6.1 81 81 Calm 30.15 1021 10 16.09344 0 0
6:35 am 06:35 Clear 47 8.6 43 6.3 86 86 Calm 30.15 1021 10 16.09344 0 0
6:55 am 06:55 Clear 45 7.3 42 5.5 88 88 SE 5 7 30.15 1021 10 16.09344 0 0
7:15 am 07:15 Clear 47 8.6 44 6.6 87 87 Calm 30.15 1021 10 16.09344 0 0
7:35 am 07:35 Sunny 48 9 44 6.8 86 86 Calm 30.15 1021 10 16.09344 0 0
7:55 am 07:55 Sunny 47 8.6 44 6.4 86 86 Calm 30.15 1021 10 16.09344 0 0
8:15 am 08:15 Sunny 47 8.2 43 6.2 87 87 Calm 30.15 1021 10 16.09344 0 0
8:35 am 08:35 Sunny 47 8.5 44 6.6 88 88 Calm 30.15 1021 10 16.09344 0 0
8:55 am 08:55 Sunny 52 11.1 47 8.5 84 84 SE 5 7 30.12 1020 10 16.09344 0 0
9:15 am 09:15 Sunny 55 13 47 8.5 74 74 SSE 6 9 30.12 1020 10 16.09344 0 0
9:35 am 09:35 Sunny 58 14.4 47 8.5 68 68 S 5 7 30.09 1019 10 16.09344 0 0
9:55 am 09:55 Sunny 62 16.4 47 8.2 59 59 S 8 13 30.09 1019 10 16.09344 0 0
10:15 am 10:15 Sunny 64 17.9 46 7.6 51 51 S 7 11 30.06 1018 10 16.09344 0 0
10:35 am 10:35 Sunny 65 18.6 45 7.1 47 47 S 10 17 30.06 1018 10 16.09344 0 0
10:55 am 10:55 Sunny 67 19.3 45 7.1 45 45 S 9 15 30.06 1018 10 16.09344 0 0
11:15 am 11:15 Sunny 67 19.5 45 7.1 45 45 S 9 15 30.06 1018 10 16.09344 0 0
11:35 am 11:35 Sunny 68 20.1 45 7 43 43 SSE 9 15 30.06 1018 10 16.09344 0 0
11:55 am 11:55 Sunny 69 20.7 44 6.8 41 41 S 8 13 30.03 1017 10 16.09344 0 0
12:15 pm 12:15 Sunny 69 20.4 45 7 42 42 SSE 9 15 30.06 1018 10 16.09344 0 0
12:35 pm 12:35 Sunny 70 21 45 7.1 41 41 SSE 9 15 30.03 1017 10 16.09344 0 0
12:55 pm 12:55 Sunny 71 21.5 44 6.7 38 38 SSE 9 15 30 1016 10 16.09344 0 0
1:15 pm 13:15 Sunny 72 22 44 6.5 37 37 SSE 5 7 30 1016 10 16.09344 0 0
1:35 pm 13:35 Sunny 70 21.3 45 7 40 40 S 9 15 30 1016 10 16.09344 0 0
1:55 pm 13:55 Sunny 73 22.6 45 7.4 38 38 SSE 7 11 30 1016 10 16.09344 0 0
2:15 pm 14:15 Sunny 74 23.2 44 6.9 35 35 S 8 13 29.97 1015 10 16.09344 0 0
2:35 pm 14:35 Sunny 74 23.4 44 6.9 35 35 S 9 15 29.97 1015 10 16.09344 0 0
2:55 pm 14:55 Sunny 74 23.4 44 6.7 34 34 SSE 10 17 29.97 1015 10 16.09344 0 0
3:15 pm 15:15 Sunny 74 23.6 44 6.9 34 34 S 8 13 29.97 1015 10 16.09344 0 0
3:35 pm 15:35 Sunny 73 23 44 6.6 35 35 S 9 15 29.97 1015 10 16.09344 0 0
3:55 pm 15:55 Sunny 73 22.9 44 6.7 35 35 S 9 15 29.97 1015 10 16.09344 0 0
4:15 pm 16:15 Sunny 73 23 44 6.6 35 35 S 9 15 29.97 1015 10 16.09344 0 0
4:35 pm 16:35 Sunny 74 23.1 44 6.5 34 34 SSE 10 17 29.94 1014 10 16.09344 0 0
4:55 pm 16:55 Sunny 74 23.1 44 6.4 34 34 SSE 13 20 29.94 1014 10 16.09344 0 0
5:15 pm 17:15 Sunny 74 23.1 43 6.3 34 34 SSE 10 17 29.94 1014 10 16.09344 0 0
5:35 pm 17:35 Sunny 73 22.9 43 6.3 34 34 SE 9 15 29.94 1014 10 16.09344 0 0
5:55 pm 17:55 Sunny 73 22.6 44 6.5 35 35 SSE 8 13 29.94 1014 10 16.09344 0 0
6:15 pm 18:15 Sunny 72 22.1 43 6.2 36 36 SSE 9 15 29.94 1014 10 16.09344 0 0
6:35 pm 18:35 Sunny 71 21.5 44 6.4 38 38 SE 10 17 29.94 1014 10 16.09344 0 0
6:55 pm 18:55 Sunny 64 17.5 44 6.5 49 49 SSE 6 9 30.06 1018 10 16.09344 0 0
7:15 pm 19:15 Sunny 66 18.8 45 7 46 46 SE 7 11 29.97 1015 10 16.09344 0 0
7:35 pm 19:35 Clear 63 17.2 45 7.1 52 52 SE 6 9 29.97 1015 10 16.09344 0 0
7:55 pm 19:55 Clear 59 15 45 7 59 59 SE 6 9 30 1016 10 16.09344 0 0
8:15 pm 20:15 Clear 58 14.3 45 7 62 62 SE 7 11 30 1016 10 16.09344 0 0
8:35 pm 20:35 Clear 56 13.5 44 6.9 65 65 ESE 7 11 30.03 1017 10 16.09344 0 0
8:55 pm 20:55 Clear 56 13.2 44 6.5 64 64 ESE 7 11 30.03 1017 10 16.09344 0 0
9:15 pm 21:15 Clear 55 12.5 44 6.7 68 68 ESE 7 11 30.06 1018 10 16.09344 0 0
9:35 pm 21:35 Clear 53 11.8 44 6.6 71 71 ESE 8 13 30.06 1018 10 16.09344 0 0
9:55 pm 21:55 Clear 53 11.5 44 6.7 73 73 ESE 8 13 30.06 1018 10 16.09344 0 0
10:15 pm 22:15 Clear 54 12.3 45 7.1 71 71 ESE 9 15 30.06 1018 10 16.09344 0 0
10:35 pm 22:35 Clear 54 12.2 45 7 71 71 SE 7 11 30.06 1018 10 16.09344 0 0
10:55 pm 22:55 Clear 55 12.5 45 7.1 70 70 SE 7 11 30.06 1018 10 16.09344 0 0
11:15 pm 23:15 Clear 55 12.6 45 7.1 69 69 SE 9 15 30.06 1018 10 16.09344 0 0
11:35 pm 23:35 Clear 56 13.5 45 7.3 66 66 SE 9 15 30.03 1017 10 16.09344 0 0
11:55 pm 23:55 Clear 54 12.3 45 7.2 71 71 SE 7 11 30.06 1018 10 16.09344 0 0

Powered by AerisWeather